User: anonymous   Login
Location: Palau
(42.3086°N, 3.1507°E)
Time: 17:39:46
(UTC+00:00)
Language:

STARLINK-1218 - Orbit

View from above orbital plane
View from above orbital plane
View from above satellite
View from above satellite

Ground track
Ground track

The orbit data is extracted from the following two-line orbital elements,

1 45209C 20012AH  20228.26327811  .00007274  00000-0  49807-3 0  2285
2 45209  53.0017 150.5342 0001648  83.6002 128.8182 15.05582982    12
Epoch (UTC): 15 August 2020 06:19:07
Eccentricity: 0.0001648
inclination: 53.0017°
perigee height: 548 km
apogee height: 551 km
right ascension of ascending node: 150.5342°
argument of perigee: 83.6002°
revolutions per day: 15.05582982
mean anomaly at epoch: 128.8182°
orbit number at epoch: 1

The dashed part of the orbit path shows where the satellite is in the earth's shadow,  

DLR